Time,TemperatureF,DewpointF,PressureIn,WindDirection,WindDirectionDegrees,WindSpeedMPH,WindSpeedGustMPH,Humidity,HourlyPrecipIn,Conditions,Clouds,dailyrainin,SoftwareType,DateUTC
2013-05-15 00:03:00,49.0,44.0,30.08,West,269,0.0,-999.0,83,-99.99,,,-99.99,,2013-05-15 04:03:00,
2013-05-15 00:12:00,49.0,44.0,30.08,West,269,0.0,-999.0,83,-99.99,,,-99.99,,2013-05-15 04:12:00,
2013-05-15 00:24:00,49.0,44.0,30.08,West,269,0.0,-999.0,83,-99.99,,,-99.99,,2013-05-15 04:24:00,
2013-05-15 00:33:00,48.0,45.0,30.08,West,269,3.0,-999.0,89,-99.99,,,-99.99,,2013-05-15 04:33:00,
2013-05-15 00:42:00,48.0,45.0,30.08,West,269,3.0,-999.0,89,-99.99,,,-99.99,,2013-05-15 04:42:00,
2013-05-15 00:52:00,48.0,45.0,30.08,West,269,3.0,-999.0,90,-99.99,,,-99.99,,2013-05-15 04:52:00,
2013-05-15 01:02:00,48.0,45.0,30.08,West,269,3.0,-999.0,90,-99.99,,,-99.99,,2013-05-15 05:02:00,
2013-05-15 01:12:00,48.0,45.0,30.08,West,269,3.0,-999.0,90,-99.99,,,-99.99,,2013-05-15 05:12:00,
2013-05-15 01:22:00,48.0,45.0,30.07,West,267,3.0,-999.0,91,-99.99,,,-99.99,,2013-05-15 05:22:00,
2013-05-15 01:32:00,48.0,45.0,30.07,West,267,3.0,-999.0,91,-99.99,,,-99.99,,2013-05-15 05:32:00,
2013-05-15 01:42:00,48.0,45.0,30.07,West,267,3.0,-999.0,91,-99.99,,,-99.99,,2013-05-15 05:42:00,
2013-05-15 01:52:00,48.0,45.0,30.07,SW,232,4.0,-999.0,91,-99.99,,,-99.99,,2013-05-15 05:52:00,
2013-05-15 02:02:00,48.0,45.0,30.06,SSW,211,4.0,-999.0,90,-99.99,,,-99.99,,2013-05-15 06:02:00,
2013-05-15 02:11:00,48.0,45.0,30.06,SSW,211,4.0,-999.0,90,-99.99,,,-99.99,,2013-05-15 06:11:00,
2013-05-15 02:21:00,48.0,44.0,30.06,South,169,7.0,-999.0,87,-99.99,,,-99.99,,2013-05-15 06:21:00,
2013-05-15 02:32:00,48.0,44.0,30.05,SSE,155,8.0,-999.0,86,-99.99,,,-99.99,,2013-05-15 06:32:00,
2013-05-15 02:42:00,48.0,44.0,30.05,SSE,155,8.0,-999.0,86,-99.99,,,-99.99,,2013-05-15 06:42:00,
2013-05-15 02:52:00,49.0,44.0,30.04,SSE,148,8.0,-999.0,84,-99.99,,,-99.99,,2013-05-15 06:52:00,
2013-05-15 03:01:00,49.0,45.0,30.03,SE,144,8.0,-999.0,85,-99.99,,,-99.99,,2013-05-15 07:01:00,
2013-05-15 03:11:00,49.0,45.0,30.03,SE,144,8.0,-999.0,85,-99.99,,,-99.99,,2013-05-15 07:11:00,
2013-05-15 03:22:00,49.0,45.0,30.03,SE,136,8.0,-999.0,85,-99.99,,,-99.99,,2013-05-15 07:22:00,
2013-05-15 03:32:00,49.0,45.0,30.03,SE,132,8.0,-999.0,85,-99.99,,,-99.99,,2013-05-15 07:32:00,
2013-05-15 03:42:00,49.0,45.0,30.03,SE,132,8.0,-999.0,85,-99.99,,,-99.99,,2013-05-15 07:42:00,
2013-05-15 03:52:00,49.0,44.0,30.02,SE,132,7.0,-999.0,84,-99.99,,,-99.99,,2013-05-15 07:52:00,
2013-05-15 04:02:00,49.0,44.0,30.02,SE,130,8.0,-999.0,84,-99.99,,,-99.99,,2013-05-15 08:02:00,
2013-05-15 04:12:00,49.0,44.0,30.02,SE,130,8.0,-999.0,84,-99.99,,,-99.99,,2013-05-15 08:12:00,
2013-05-15 04:21:00,49.0,44.0,30.02,ESE,116,8.0,-999.0,84,-99.99,,,-99.99,,2013-05-15 08:21:00,
2013-05-15 04:32:00,49.0,44.0,30.01,ESE,119,9.0,-999.0,83,-99.99,,,-99.99,,2013-05-15 08:32:00,
2013-05-15 04:42:00,49.0,44.0,30.01,ESE,120,10.0,-999.0,82,-99.99,,,-99.99,,2013-05-15 08:42:00,
2013-05-15 04:53:00,49.0,44.0,30.01,ESE,120,10.0,-999.0,82,-99.99,,,-99.99,,2013-05-15 08:53:00,
2013-05-15 05:01:00,49.0,44.0,30.00,ESE,117,12.0,-999.0,82,-99.99,,,-99.99,,2013-05-15 09:01:00,
2013-05-15 05:12:00,49.0,44.0,30.00,ESE,117,12.0,-999.0,82,-99.99,,,-99.99,,2013-05-15 09:12:00,
2013-05-15 05:21:00,49.0,43.0,30.00,ESE,116,12.0,-999.0,80,-99.99,,,-99.99,,2013-05-15 09:21:00,
2013-05-15 05:33:00,49.0,43.0,29.98,ESE,117,14.0,-999.0,80,-99.99,,,-99.99,,2013-05-15 09:33:00,
2013-05-15 05:42:00,49.0,43.0,29.98,ESE,117,14.0,-999.0,80,-99.99,,,-99.99,,2013-05-15 09:42:00,
2013-05-15 05:53:00,50.0,44.0,29.99,SE,135,12.0,-999.0,79,-99.99,,,-99.99,,2013-05-15 09:53:00,
2013-05-15 06:02:00,50.0,43.0,29.99,SE,130,12.0,-999.0,78,-99.99,,,-99.99,,2013-05-15 10:02:00,
2013-05-15 06:13:00,50.0,43.0,29.99,SE,130,12.0,-999.0,78,-99.99,,,-99.99,,2013-05-15 10:13:00,
2013-05-15 06:22:00,50.0,43.0,29.98,SE,126,12.0,-999.0,78,-99.99,,,-99.99,,2013-05-15 10:22:00,
2013-05-15 06:32:00,50.0,44.0,29.98,ESE,115,12.0,-999.0,79,-99.99,,,-99.99,,2013-05-15 10:32:00,
2013-05-15 06:42:00,50.0,44.0,29.98,ESE,115,12.0,-999.0,79,-99.99,,,-99.99,,2013-05-15 10:42:00,
2013-05-15 06:52:00,50.0,44.0,29.98,ESE,117,11.0,-999.0,80,-99.99,,,-99.99,,2013-05-15 10:52:00,
2013-05-15 07:12:00,51.0,45.0,29.98,ESE,116,10.0,-999.0,81,-99.99,,,-99.99,,2013-05-15 11:12:00,
2013-05-15 07:19:00,51.0,45.0,29.98,ESE,116,10.0,-999.0,81,-99.99,,,-99.99,,2013-05-15 11:19:00,
2013-05-15 07:27:00,51.0,46.0,29.97,ESE,116,11.0,-999.0,83,-99.99,,,-99.99,,2013-05-15 11:27:00,
2013-05-15 07:38:00,51.0,46.0,29.98,ESE,121,10.0,-999.0,84,-99.99,,,-99.99,,2013-05-15 11:38:00,
2013-05-15 07:56:00,52.0,48.0,29.97,SE,129,11.0,-999.0,85,-99.99,,,-99.99,,2013-05-15 11:56:00,
2013-05-15 08:10:00,52.0,48.0,29.97,SE,128,12.0,-999.0,86,-99.99,,,-99.99,,2013-05-15 12:10:00,
2013-05-15 08:16:00,52.0,48.0,29.97,SE,128,12.0,-999.0,86,-99.99,,,-99.99,,2013-05-15 12:16:00,
2013-05-15 08:29:00,53.0,49.0,29.96,ESE,116,12.0,-999.0,86,-99.99,,,-99.99,,2013-05-15 12:29:00,
2013-05-15 08:37:00,53.0,49.0,29.96,SE,124,12.0,-999.0,86,-99.99,,,-99.99,,2013-05-15 12:37:00,
2013-05-15 08:48:00,53.0,49.0,29.96,SE,124,12.0,-999.0,86,-99.99,,,-99.99,,2013-05-15 12:48:00,
2013-05-15 08:54:00,53.0,49.0,29.95,SE,129,13.0,-999.0,86,-99.99,,,-99.99,,2013-05-15 12:54:00,
2013-05-15 09:11:00,54.0,50.0,29.94,SE,133,11.0,-999.0,86,-99.99,,,-99.99,,2013-05-15 13:11:00,
2013-05-15 09:19:00,54.0,50.0,29.94,SE,133,11.0,-999.0,86,-99.99,,,-99.99,,2013-05-15 13:19:00,
2013-05-15 09:27:00,54.0,50.0,29.94,SE,126,11.0,-999.0,86,-99.99,,,-99.99,,2013-05-15 13:27:00,
2013-05-15 09:36:00,56.0,52.0,29.95,SE,130,9.0,-999.0,85,-99.99,,,-99.99,,2013-05-15 13:36:00,
2013-05-15 09:47:00,56.0,52.0,29.95,SE,130,9.0,-999.0,85,-99.99,,,-99.99,,2013-05-15 13:47:00,
2013-05-15 09:57:00,56.0,51.0,29.96,SSE,159,8.0,-999.0,84,-99.99,,,-99.99,,2013-05-15 13:57:00,
2013-05-15 10:07:00,56.0,51.0,29.97,SSE,161,4.0,-999.0,83,-99.99,,,-99.99,,2013-05-15 14:07:00,
2013-05-15 10:14:00,56.0,51.0,29.97,SSE,161,4.0,-999.0,83,-99.99,,,-99.99,,2013-05-15 14:14:00,
2013-05-15 10:27:00,57.0,52.0,29.93,SSE,161,6.0,-999.0,83,-99.99,,,-99.99,,2013-05-15 14:27:00,
2013-05-15 10:38:00,57.0,52.0,29.93,SSE,159,7.0,-999.0,82,-99.99,,,-99.99,,2013-05-15 14:38:00,
2013-05-15 10:48:00,57.0,52.0,29.93,SSE,159,7.0,-999.0,82,-99.99,,,-99.99,,2013-05-15 14:48:00,
2013-05-15 10:54:00,59.0,54.0,29.91,SSE,163,8.0,-999.0,82,-99.99,,,-99.99,,2013-05-15 14:54:00,
2013-05-15 11:09:00,60.0,54.0,29.90,SE,134,10.0,-999.0,81,-99.99,,,-99.99,,2013-05-15 15:09:00,
2013-05-15 11:16:00,60.0,54.0,29.90,SE,134,10.0,-999.0,81,-99.99,,,-99.99,,2013-05-15 15:16:00,
2013-05-15 11:29:00,60.0,53.0,29.89,SE,138,11.0,-999.0,77,-99.99,,,-99.99,,2013-05-15 15:29:00,
2013-05-15 11:48:00,61.0,54.0,29.89,SSE,149,9.0,-999.0,79,-99.99,,,-99.99,,2013-05-15 15:48:00,
2013-05-15 11:57:00,62.0,54.0,29.90,SE,133,6.0,-999.0,75,-99.99,,,-99.99,,2013-05-15 15:57:00,
2013-05-15 12:24:00,62.0,54.0,29.89,SSE,155,7.0,-999.0,75,-99.99,,,-99.99,,2013-05-15 16:24:00,
2013-05-15 12:38:00,64.0,54.0,29.88,SE,138,8.0,-999.0,71,-99.99,,,-99.99,,2013-05-15 16:38:00,
2013-05-15 12:54:00,63.0,53.0,29.87,SE,146,8.0,-999.0,69,-99.99,,,-99.99,,2013-05-15 16:54:00,
2013-05-15 13:11:00,64.0,54.0,29.88,SSE,151,5.0,-999.0,70,-99.99,,,-99.99,,2013-05-15 17:11:00,
2013-05-15 13:21:00,64.0,54.0,29.88,SSE,151,5.0,-999.0,70,-99.99,,,-99.99,,2013-05-15 17:21:00,
2013-05-15 13:27:00,64.0,54.0,29.87,SSE,147,7.0,-999.0,71,-99.99,,,-99.99,,2013-05-15 17:27:00,
2013-05-15 13:38:00,63.0,53.0,29.87,SSE,152,7.0,-999.0,71,-99.99,,,-99.99,,2013-05-15 17:38:00,
2013-05-15 13:47:00,63.0,53.0,29.87,SSE,152,7.0,-999.0,71,-99.99,,,-99.99,,2013-05-15 17:47:00,
2013-05-15 14:07:00,62.0,51.0,29.89,SSE,165,4.0,-999.0,68,-99.99,,,-99.99,,2013-05-15 18:07:00,
2013-05-15 14:16:00,62.0,51.0,29.89,SSE,165,4.0,-999.0,68,-99.99,,,-99.99,,2013-05-15 18:16:00,
2013-05-15 14:27:00,61.0,52.0,29.93,SSW,203,4.0,-999.0,73,-99.99,,,-99.99,,2013-05-15 18:27:00,
2013-05-15 14:38:00,59.0,54.0,29.88,SSW,204,3.0,-999.0,83,-99.99,,,-99.99,,2013-05-15 18:38:00,
2013-05-15 14:47:00,59.0,54.0,29.88,SSW,204,3.0,-999.0,83,-99.99,,,-99.99,,2013-05-15 18:47:00,
2013-05-15 15:09:00,57.0,53.0,29.83,SE,138,12.0,-999.0,86,-99.99,,,-99.99,,2013-05-15 19:09:00,
2013-05-15 15:16:00,57.0,53.0,29.83,SE,138,12.0,-999.0,86,-99.99,,,-99.99,,2013-05-15 19:16:00,
2013-05-15 15:30:00,57.0,53.0,29.78,SE,144,15.0,-999.0,86,-99.99,,,-99.99,,2013-05-15 19:30:00,
2013-05-15 15:38:00,58.0,54.0,29.75,SE,137,17.0,-999.0,87,-99.99,,,-99.99,,2013-05-15 19:38:00,
2013-05-15 16:09:00,62.0,56.0,29.75,SSE,157,11.0,-999.0,81,-99.99,,,-99.99,,2013-05-15 20:09:00,
2013-05-15 16:20:00,62.0,56.0,29.75,SSE,157,11.0,-999.0,81,-99.99,,,-99.99,,2013-05-15 20:20:00,
2013-05-15 16:29:00,64.0,57.0,29.76,SSE,160,3.0,-999.0,77,-99.99,,,-99.99,,2013-05-15 20:29:00,
2013-05-15 16:40:00,64.0,57.0,29.76,SSE,165,7.0,-999.0,79,-99.99,,,-99.99,,2013-05-15 20:40:00,
2013-05-15 16:47:00,64.0,57.0,29.76,SSE,165,7.0,-999.0,79,-99.99,,,-99.99,,2013-05-15 20:47:00,
2013-05-15 16:53:00,65.0,58.0,29.75,South,169,7.0,-999.0,77,-99.99,,,-99.99,,2013-05-15 20:53:00,
2013-05-15 17:09:00,65.0,56.0,29.75,South,169,10.0,-999.0,74,-99.99,,,-99.99,,2013-05-15 21:09:00,
2013-05-15 17:20:00,65.0,56.0,29.75,South,169,10.0,-999.0,74,-99.99,,,-99.99,,2013-05-15 21:20:00,
2013-05-15 17:28:00,66.0,57.0,29.74,SSE,163,9.0,-999.0,74,-99.99,,,-99.99,,2013-05-15 21:28:00,
2013-05-15 17:41:00,67.0,58.0,29.74,SSE,161,7.0,-999.0,74,-99.99,,,-99.99,,2013-05-15 21:41:00,
2013-05-15 17:51:00,67.0,58.0,29.74,SSE,161,7.0,-999.0,74,-99.99,,,-99.99,,2013-05-15 21:51:00,
2013-05-15 18:11:00,69.0,59.0,29.73,SSE,165,7.0,-999.0,71,-99.99,,,-99.99,,2013-05-15 22:11:00,
2013-05-15 18:19:00,69.0,59.0,29.73,SSE,165,7.0,-999.0,71,-99.99,,,-99.99,,2013-05-15 22:19:00,
2013-05-15 18:29:00,69.0,60.0,29.72,South,175,5.0,-999.0,72,-99.99,,,-99.99,,2013-05-15 22:29:00,
2013-05-15 18:40:00,69.0,60.0,29.72,South,173,4.0,-999.0,73,-99.99,,,-99.99,,2013-05-15 22:40:00,
2013-05-15 18:55:00,69.0,60.0,29.72,South,173,2.0,-999.0,72,-99.99,,,-99.99,,2013-05-15 22:55:00,
2013-05-15 19:08:00,71.0,60.0,29.72,South,173,0.0,-999.0,68,-99.99,,,-99.99,,2013-05-15 23:08:00,
2013-05-15 19:17:00,71.0,60.0,29.72,South,173,0.0,-999.0,68,-99.99,,,-99.99,,2013-05-15 23:17:00,
2013-05-15 19:29:00,70.0,60.0,29.72,South,173,1.0,-999.0,70,-99.99,,,-99.99,,2013-05-15 23:29:00,
2013-05-15 19:39:00,69.0,60.0,29.72,South,173,0.0,-999.0,73,-99.99,,,-99.99,,2013-05-15 23:39:00,
2013-05-15 19:50:00,69.0,60.0,29.72,South,173,0.0,-999.0,73,-99.99,,,-99.99,,2013-05-15 23:50:00,
2013-05-15 20:08:00,68.0,61.0,29.72,South,173,0.0,-999.0,78,-99.99,,,-99.99,,2013-05-16 00:08:00,
2013-05-15 20:27:00,68.0,62.0,29.71,South,173,1.0,-999.0,81,-99.99,,,-99.99,,2013-05-16 00:27:00,
2013-05-15 20:36:00,66.0,61.0,29.71,South,173,1.0,-999.0,83,-99.99,,,-99.99,,2013-05-16 00:36:00,
2013-05-15 20:51:00,65.0,59.0,29.71,South,173,2.0,-999.0,82,-99.99,,,-99.99,,2013-05-16 00:51:00,
2013-05-15 21:08:00,65.0,60.0,29.72,South,173,1.0,-999.0,83,-99.99,,,-99.99,,2013-05-16 01:08:00,
2013-05-15 21:18:00,65.0,60.0,29.72,South,173,1.0,-999.0,83,-99.99,,,-99.99,,2013-05-16 01:18:00,
2013-05-15 21:30:00,65.0,60.0,29.72,South,173,1.0,-999.0,83,-99.99,,,-99.99,,2013-05-16 01:30:00,
2013-05-15 21:56:00,64.0,60.0,29.72,South,173,0.0,-999.0,86,-99.99,,,-99.99,,2013-05-16 01:56:00,
2013-05-15 22:08:00,64.0,59.0,29.72,South,173,0.0,-999.0,85,-99.99,,,-99.99,,2013-05-16 02:08:00,
2013-05-15 22:18:00,64.0,59.0,29.72,South,173,0.0,-999.0,85,-99.99,,,-99.99,,2013-05-16 02:18:00,
2013-05-15 22:28:00,65.0,59.0,29.73,South,173,0.0,-999.0,82,-99.99,,,-99.99,,2013-05-16 02:28:00,
2013-05-15 22:39:00,65.0,59.0,29.73,South,173,0.0,-999.0,82,-99.99,,,-99.99,,2013-05-16 02:39:00,
2013-05-15 22:46:00,65.0,59.0,29.73,South,173,0.0,-999.0,82,-99.99,,,-99.99,,2013-05-16 02:46:00,
2013-05-15 22:54:00,65.0,59.0,29.73,South,173,0.0,-999.0,82,-99.99,,,-99.99,,2013-05-16 02:54:00,
2013-05-15 23:07:00,64.0,59.0,29.73,South,173,1.0,-999.0,84,-99.99,,,-99.99,,2013-05-16 03:07:00,
2013-05-15 23:17:00,64.0,59.0,29.73,South,173,1.0,-999.0,84,-99.99,,,-99.99,,2013-05-16 03:17:00,
2013-05-15 23:26:00,62.0,58.0,29.73,South,173,1.0,-999.0,88,-99.99,,,-99.99,,2013-05-16 03:26:00,
2013-05-15 23:39:00,62.0,59.0,29.73,South,173,0.0,-999.0,90,-99.99,,,-99.99,,2013-05-16 03:39:00,
2013-05-15 23:46:00,62.0,59.0,29.73,South,173,0.0,-999.0,90,-99.99,,,-99.99,,2013-05-16 03:46:00,
2013-05-15 23:55:00,62.0,59.0,29.73,South,173,0.0,-999.0,89,-99.99,,,-99.99,,2013-05-16 03:55:00,